sat.trackr.live / text

‹ back to catalog

BEIDOU-3 M10 (C30)

NORAD 43246 · 2018-029B

PAYLOAD ACTIVE UNKNOWN

§ Identity

Operator
Country
PRC
Launch date
2018-03-29
Launch site
XICLF
Launch vehicle
Mass (kg)
RCS (m²)

Purposes: nav

External: N2YO · Heavens-Above · Gunter

§ Orbital elements

Epoch: 2026-05-24T19:03:11.764224Z

Period
773.24 min
Inclination
54.2138°
Eccentricity
0.0004375
Mean motion
1.86228954 rev/d
Perigee alt
21,516.0 km
Apogee alt
21,540.5 km
Semi-major
27,906.4 km
B*
0.0000e+0
RAAN
300.7925°
Arg perigee
39.9208°
Mean anomaly
320.0884°
Rev number
5,544

§ Raw data

BEIDOU-3 M10 (C30)1 43246U 18029B   26144.79388616 -.00000086  00000+0  00000+0 0  99972 43246  54.2138 300.7925 0004375  39.9208 320.0884  1.86228954 55448

JSON: /api/v1/satellites/43246 · /tle

For live sub-satellite position, see the globe view (requires WebGL).

§ Visibility from observer

Set your observer location to see the next 7 days of passes ≥ 10°. The values pass through the URL so the page stays shareable.

No JS? Fill the form by hand. The geolocation button needs JavaScript.